Regional Weather Roundup
Issued by NWS

Home | Current Version | Previous Version | Text Only | Print | Product List | Glossary On
Versions: 1 2 3 4 5 6 7 8 9 10 11 12 13 14 15 16 17 18 19 20 21 22 23 24 25 26 27 28 29 30 31 32 33 34 35 36 37 38 39 40 41 42 43 44 45 46 47 48 49 50
000
ASUS43 KFSD 012010
RWRSD

WEATHER ROUNDUP FOR SOUTH DAKOTA
NATIONAL WEATHER SERVICE SIOUX FALLS SD
200 PM CST WED MAR 01 2017

NOTE: "FAIR" INDICATES FEW OR NO CLOUDS BELOW 12,000 FEET WITH NO
SIGNIFICANT WEATHER AND/OR OBSTRUCTIONS TO VISIBILITY.


SDZ001>005-009-010-012>017-012100-
NORTHWEST AND NORTH CENTRAL SOUTH DAKOTA

CITY           SKY/WX    TMP DP  RH WIND       PRES   REMARKS
BUFFALO          N/A     33  15  47 W23       29.96  WCI  21
FAITH            N/A     29  20  69 W9        30.08  WCI  20
MOBRIDGE       MOSUNNY   33  15  47 N14G21    30.08F WCI  23
$$

SDZ012>016-024>037-041>051-057-063-072>074-012100-
SOUTHWEST AND SOUTH CENTRAL SOUTH DAKOTA

CITY           SKY/WX    TMP DP  RH WIND       PRES   REMARKS
RAPID CTY ARPT PTSUNNY   41   9  26 NW14G23   30.05
PIERRE         MOSUNNY   30  19  63 NW15      30.13  WCI  19
CUSTER         MOSUNNY   29   9  43 W17G30    30.00  WCI  17
ELLSWORTH AFB  MOSUNNY   41  10  27 NW17G29   30.04
PHILIP         PTSUNNY   39  19  44 NW16G23   30.11
PINE RIDGE     SUNNY     34  17  50 W17G25    30.11  WCI  23
SPEARFISH      FAIR      36   9  32 W23G35    30.03F
WINNER         FAIR      40  22  48 NW23G30   30.13
$$

SDZ004>011-016>023-039-040-012100-
NORTHEAST SOUTH DAKOTA

CITY           SKY/WX    TMP DP  RH WIND       PRES   REMARKS
ABERDEEN       MOSUNNY   31  18  58 NW18      30.10  WCI  19
WATERTOWN      CLOUDY    27  17  66 NW18G28   30.03R WCI  14
BROOKINGS      CLOUDY    28  22  78 NW18G25   30.03  WCI  15
SISSETON         N/A     27  19  72 N22       30.04  WCI  13
$$

SDZ017-020-022-023-036>040-048>070-012100-
SOUTHEAST SOUTH DAKOTA

CITY           SKY/WX    TMP DP  RH WIND       PRES   REMARKS
SIOUX FALLS    CLOUDY    31  24  75 NW15G24   30.07  WCI  20
HURON          CLOUDY    28  22  78 NW18      30.12  WCI  15
CHAMBERLAIN    CLOUDY    35  24  63 NW17G24   30.13F WCI  25
MITCHELL       CLOUDY    32  26  78 NW21      30.14  WCI  20
YANKTON        CLOUDY   N/A N/A N/A NW30G37   30.11R
$$

ABBREVIATIONS USED IN REMARKS
   TC - TEMPERATURE IN CELSIUS
  WCI - WIND CHILL INDEX
   HX - HEAT INDEX
  VSB - VISIBILITY




USA.gov is the U.S. government's official web portal to all federal, state and local government web resources and services.